Angleton, TX

7:23 PM CST on February 24, 2017 (GMT -0600)
Brazoria County

Weather History for KLBX - November, 2012

Change the Weather History Date:

Sunday, November 11, 2012

  Actual Average Record
Temperature  
Mean Temperature 76 °F -  
Max Temperature 82 °F 70 °F 84 °F (2003)
Min Temperature 64 °F 54 °F 34 °F (2011)
Cooling Degree Days 10    
Growing Degree Days 26 (Base 50)    
Moisture  
Dew Point 69 °F    
Average Humidity 80    
Maximum Humidity 100    
Minimum Humidity 62    
Precipitation  
Precipitation 0.01 in - - ()
Sea Level Pressure  
Sea Level Pressure 29.97 in    
Wind  
Wind Speed 14 mph (South)    
Max Wind Speed 24 mph    
Max Gust Speed 29 mph    
Visibility 9 miles    
Events Rain    
Averages and records for this station are not official NWS values.
T = Trace of Precipitation, MM = Missing Value Source: NWS Daily Summary

Daily Weather History Graph

Daily Weather History Graph

Search for Another Location

Airport or City:

Trip Planner

Search our weather history database for the weather conditions in past years. The results will help you decide how hot, cold, wet, or windy it might be!

Date:

Astronomy

Nov. 11, 2012 Rise Set
Actual Time 6:42 AM CST 5:28 PM CST
Civil Twilight 6:17 AM CST 5:53 PM CST
Nautical Twilight 5:49 AM CST 6:22 PM CST
Astronomical Twilight 5:21 AM CST 6:50 PM CST
Moon 4:07 AM CST (11/11) 3:45 PM CST (11/11)
Length of Visible Light 11h 36m
Length of Day
10h 46m
Waning Crescent, 7% of the Moon is Illuminated
Nov 11
Waning Crescent
Nov 13
New
Nov 20
First Quarter
Nov 28
Full
Dec 6
Last Quarter

Hourly Weather History & Observations

Time (CST) Temp. Heat Index Dew Point Humidity Pressure Visibility Wind Dir Wind Speed Gust Speed Precip Events Conditions
12:53 AM 75.0 °F - 66.9 °F 76% 29.95 in 10.0 mi South 16.1 mph 23.0 mph N/A   Mostly Cloudy
1:53 AM 75.9 °F - 66.9 °F 74% 29.94 in 10.0 mi SSE 18.4 mph - 0.00 in Rain Light Rain
2:53 AM 75.0 °F - 68.0 °F 79% 29.93 in 10.0 mi South 18.4 mph - 0.00 in   Overcast
3:53 AM 72.0 °F - 68.0 °F 87% 29.90 in 10.0 mi South 15.0 mph - 0.01 in Rain Light Rain
4:53 AM 75.0 °F - 68.0 °F 79% 29.90 in 10.0 mi SSE 16.1 mph - 0.00 in   Overcast
5:53 AM 75.0 °F - 68.0 °F 79% 29.91 in 10.0 mi South 17.3 mph - N/A   Overcast
6:53 AM 73.9 °F - 68.0 °F 82% 29.93 in 10.0 mi South 13.8 mph - N/A   Overcast
7:34 AM 75.2 °F - 69.8 °F 83% 29.94 in 10.0 mi South 13.8 mph - N/A   Overcast
7:53 AM 75.0 °F - 70.0 °F 84% 29.95 in 10.0 mi South 12.7 mph 21.9 mph N/A   Overcast
8:44 AM 77.0 °F - 69.8 °F 78% 29.96 in 10.0 mi South 15.0 mph - N/A   Mostly Cloudy
8:53 AM 78.1 °F - 69.1 °F 74% 29.97 in 10.0 mi South 16.1 mph - N/A   Scattered Clouds
9:35 AM 78.8 °F - 69.8 °F 74% 29.97 in 10.0 mi South 17.3 mph - N/A   Mostly Cloudy
9:45 AM 78.8 °F - 69.8 °F 74% 29.97 in 10.0 mi South 17.3 mph 23.0 mph N/A   Mostly Cloudy
10:53 AM 80.1 °F 82.9 °F 69.1 °F 69% 29.97 in 10.0 mi South 21.9 mph 28.8 mph N/A   Mostly Cloudy
11:39 AM 80.6 °F 83.9 °F 69.8 °F 70% 29.95 in 10.0 mi South 19.6 mph 26.5 mph N/A   Mostly Cloudy
12:53 PM 82.0 °F 84.9 °F 68.0 °F 62% 29.93 in 10.0 mi South 20.7 mph 26.5 mph N/A   Mostly Cloudy
1:03 PM 82.4 °F 85.4 °F 68.0 °F 62% 29.92 in 10.0 mi South 24.2 mph 28.8 mph N/A   Overcast
1:53 PM 82.0 °F 84.9 °F 68.0 °F 62% 29.92 in 10.0 mi South 21.9 mph 27.6 mph N/A   Mostly Cloudy
2:53 PM 81.0 °F 84.1 °F 69.1 °F 67% 29.93 in 10.0 mi South 12.7 mph 21.9 mph N/A   Overcast
3:53 PM 80.1 °F 82.9 °F 69.1 °F 69% 29.93 in 10.0 mi South 13.8 mph - 0.00 in   Overcast
4:53 PM 78.1 °F - 70.0 °F 76% 29.94 in 10.0 mi South 12.7 mph - 0.00 in   Overcast
5:53 PM 75.0 °F - 70.0 °F 84% 29.96 in 10.0 mi South 8.1 mph - 0.00 in   Overcast
6:22 PM 75.2 °F - 69.8 °F 83% 29.97 in 10.0 mi South 5.8 mph - N/A   Overcast
6:53 PM 73.0 °F - 70.0 °F 90% 29.98 in 9.0 mi South 3.5 mph - N/A   Overcast
7:10 PM 73.4 °F - 69.8 °F 88% 29.98 in 9.0 mi South 3.5 mph - N/A   Overcast
7:45 PM 73.4 °F - 69.8 °F 88% 30.00 in 8.0 mi South 3.5 mph - N/A   Overcast
7:53 PM 73.0 °F - 70.0 °F 90% 30.00 in 9.0 mi South 3.5 mph - N/A   Overcast
8:16 PM 73.4 °F - 69.8 °F 88% 30.01 in 9.0 mi South 4.6 mph - N/A   Overcast
8:53 PM 73.0 °F - 70.0 °F 90% 30.02 in 8.0 mi South 3.5 mph - N/A   Mostly Cloudy
9:18 PM 71.6 °F - 69.8 °F 94% 30.03 in 6.0 mi South 4.6 mph - N/A   Scattered Clouds
9:53 PM 72.0 °F - 70.0 °F 93% 30.04 in 7.0 mi Calm Calm - N/A   Clear
10:33 PM 69.8 °F - 68.0 °F 94% 30.06 in 1.8 mi Calm Calm - N/A   Mostly Cloudy
10:41 PM 69.8 °F - 69.8 °F 100% 30.06 in 3.0 mi Calm Calm - N/A   Mostly Cloudy
10:53 PM 70.0 °F - 68.0 °F 93% 30.06 in 6.0 mi Calm Calm - N/A   Overcast
11:53 PM 64.0 °F - 57.0 °F 78% 30.12 in 10.0 mi North 13.8 mph 23.0 mph N/A   Overcast